CW7164 Weather Reports


time (UTC)temp
F
wind
direction
speed
knots
gust
knots
rain 1hr
in
rain 24hr
in
rain mn
in
humidity
%
barometer
mb
20260505211939 56 310 1.7 6.1 0.00 0.01 0.00 34 1008.6
20260505211038 56 311 1.7 4.3 0.00 0.01 0.00 34 1008.6
20260505210139 56 292 1.7 7.8 0.00 0.01 0.00 34 1008.5
20260505205238 56 283 0.9 5.2 0.00 0.01 0.00 34 1008.7
20260505204339 56 315 1.7 5.2 0.00 0.01 0.00 34 1008.7
20260505203439 56 325 1.7 8.7 0.00 0.01 0.00 35 1008.7
20260505202538 56 314 0.9 4.3 0.00 0.01 0.00 36 1008.8
20260505200739 56 345 0.9 4.3 0.00 0.01 0.00 38 1008.8
20260505195839 55 307 0.9 4.3 0.00 0.01 0.00 35 1008.9
20260505194038 56 192 0.9 2.6 0.00 0.01 0.00 34 1008.8
20260505193139 56 323 0.9 3.5 0.00 0.01 0.00 35 1008.9
20260505192239 56 240 0.9 5.2 0.00 0.01 0.00 38 1008.9
20260505191339 56 313 0.9 5.2 0.00 0.01 0.00 36 1009.1
20260505190438 56 333 0.9 4.3 0.00 0.01 0.00 39 1009.0
20260505185538 56 204 0.9 2.6 0.00 0.01 0.00 37 1009.1
20260505183739 57 332 0.9 6.1 0.00 0.01 0.00 39 1009.0
20260505182839 57 300 0.9 4.3 0.00 0.01 0.00 42 1009.0
20260505181939 57 299 0.9 3.5 0.00 0.01 0.00 38 1008.7
20260505180138 57 256 0.9 4.3 0.00 0.01 0.00 40 1008.7
20260505175238 56 281 1.7 7.8 0.00 0.01 0.00 38 1008.7
20260505174338 56 314 1.7 4.3 0.00 0.01 0.00 41 1008.5
20260505173438 56 288 0.9 3.5 0.00 0.01 0.00 39 1008.4
20260505172538 56 192 0.9 6.1 0.00 0.01 0.00 38 1008.4
20260505171638 56 269 0.9 6.1 0.00 0.01 0.00 39 1008.5
20260505165838 56 308 1.7 6.1 0.00 0.01 0.00 42 1008.4
20260505164939 56 291 0.9 3.5 0.00 0.01 0.00 46 1008.2
20260505164038 55 322 1.7 6.1 0.00 0.01 0.00 50 1008.2
20260505163138 54 306 1.7 7.8 0.00 0.01 0.00 49 1008.4
20260505162238 54 320 1.7 6.1 0.00 0.01 0.00 51 1008.5
20260505160438 53 308 0.9 4.3 0.00 0.01 0.00 58 1008.4
20260505152838 51 293 0.9 2.6 0.00 0.01 0.00 67 1008.2
20260505151938 50 253 0.0 1.7 0.00 0.01 0.00 68 1008.0
20260505150138 49 304 0.9 2.6 0.00 0.01 0.00 71 1008.1
20260505124638 46 322 0.0 3.5 0.00 0.01 0.00 73 1008.1
20260505123738 46 317 0.0 0.9 0.00 0.01 0.00 75 1008.6
20260505122838 46 0 0.0 0.0 0.00 0.01 0.00 75 1008.2
20260505121938 46 314 0.0 1.7 0.00 0.01 0.00 75 1008.2
20260505121037 47 319 0.0 1.7 0.00 0.01 0.00 73 1008.5
20260505120138 48 330 0.9 3.5 0.00 0.01 0.00 70 1008.8
20260505115238 49 336 0.9 3.5 0.00 0.01 0.00 66 1008.4
20260505114338 50 317 0.9 2.6 0.00 0.01 0.00 60 1007.7
20260505113438 50 317 1.7 3.5 0.00 0.01 0.00 54 1007.3
20260505111638 51 329 0.9 1.7 0.00 0.01 0.00 55 1006.6
20260505110739 51 1 0.0 1.7 0.00 0.01 0.00 55 1006.1
20260505101339 52 309 0.9 4.3 0.00 0.01 0.00 54 1005.3
20260505100439 52 318 1.7 4.3 0.00 0.01 0.00 53 1005.2
20260505095539 53 321 0.9 4.3 0.00 0.01 0.00 57 1005.3
20260505094639 53 318 0.0 1.7 0.00 0.01 0.00 57 1005.5
20260505093739 54 316 0.0 1.7 0.00 0.01 0.00 56 1005.6
20260505091939 54 342 0.9 2.6 0.00 0.01 0.00 55 1005.6
20260505091039 55 318 0.9 3.5 0.00 0.01 0.00 53 1005.4
20260505090139 55 341 0.9 7.0 0.00 0.01 0.00 52 1005.1
20260505085239 55 321 0.9 7.0 0.00 0.01 0.00 50 1004.8
20260505082539 56 326 0.9 4.3 0.00 0.01 0.00 50 1003.9
20260505081639 56 325 0.9 4.3 0.00 0.01 0.00 48 1003.3
20260505080739 56 326 0.9 2.6 0.00 0.01 0.00 49 1003.4
20260505075839 56 335 0.9 3.5 0.00 0.01 0.00 48 1003.3
20260505074939 56 317 0.9 4.3 0.00 0.01 0.00 48 1002.9
20260505074039 57 323 0.9 4.3 0.00 0.01 0.00 48 1002.8
20260505072239 57 316 0.9 1.7 0.00 0.01 0.00 48 1002.6
20260505064639 58 344 0.9 3.5 0.00 0.01 0.00 46 1002.1
20260505063739 58 316 1.7 5.2 0.00 0.02 0.00 46 1002.0
20260505062839 58 325 0.9 5.2 0.00 0.02 0.00 46 1002.0
20260505061939 58 315 0.9 3.5 0.00 0.02 0.00 47 1001.9
20260505060139 59 297 0.9 2.6 0.00 0.02 0.00 47 1001.8
20260505055239 59 332 0.9 4.3 0.00 0.02 0.00 48 1001.8
20260505054339 59 319 1.7 6.1 0.00 0.02 0.00 49 1001.8
20260505053438 58 317 0.9 4.3 0.00 0.02 0.00 54 1002.1
20260505052539 59 4 0.0 1.7 0.00 0.02 0.00 56 1001.9
20260505050739 60 40 0.0 0.9 0.00 0.02 0.00 61 1001.4
20260505041339 61 344 0.9 2.6 0.00 0.02 0.02 66 1000.8
20260505034638 61 205 0.0 1.7 0.00 0.02 0.02 71 1001.0
20260505033738 61 159 0.0 1.7 0.00 0.02 0.02 71 1000.9
20260505032838 61 157 0.0 1.7 0.00 0.02 0.02 71 1000.8
20260505031938 61 114 0.0 0.9 0.00 0.02 0.02 71 1000.8
20260505031038 61 114 0.9 1.7 0.00 0.02 0.02 71 1000.7
20260505030138 61 317 0.9 3.5 0.00 0.02 0.02 71 1000.3
20260505025238 61 316 0.0 3.5 0.00 0.02 0.02 71 1000.3
20260505024338 61 184 0.0 0.9 0.00 0.02 0.02 70 1000.1
20260505023438 62 184 0.0 0.9 0.00 0.02 0.02 71 1000.1
20260505022538 62 184 0.0 0.9 0.00 0.02 0.02 70 999.9
20260505020738 63 195 0.0 0.9 0.00 0.02 0.02 69 999.4
20260505015838 63 211 0.0 1.7 0.00 0.02 0.02 68 999.0
20260505014938 63 158 0.9 2.6 0.00 0.02 0.02 68 998.9
20260505014038 63 156 0.9 2.6 0.01 0.02 0.02 68 998.8
20260505013138 63 166 0.9 4.3 0.01 0.02 0.02 69 998.8
20260505012238 64 203 0.9 4.3 0.01 0.02 0.02 69 998.8
20260505011338 64 175 0.9 2.6 0.01 0.02 0.02 69 998.8
20260505010438 64 163 0.9 3.5 0.01 0.02 0.02 69 998.3
20260505004638 64 154 0.9 3.5 0.01 0.02 0.02 70 998.7
20260505003738 64 142 0.9 2.6 0.00 0.01 0.01 70 998.6
20260505002838 65 123 0.9 1.7 0.00 0.01 0.01 70 997.8
20260505001938 65 123 0.9 1.7 0.00 0.01 0.01 69 997.8
20260505001038 66 133 0.9 4.3 0.00 0.01 0.01 68 998.1
20260505000138 66 118 0.9 2.6 0.00 0.01 0.01 64 998.6
20260504235238 66 29 0.0 1.7 0.00 0.01 0.01 62 998.4
20260504234338 67 323 0.0 1.7 0.00 0.01 0.01 60 997.7
20260504233438 68 352 0.0 0.9 0.00 0.01 0.01 58 998.0
20260504232538 68 318 2.6 15.6 0.00 0.01 0.01 56 998.1
20260504231639 69 288 0.9 11.3 0.00 0.01 0.01 61 998.3
20260504230738 69 155 0.0 0.9 0.00 0.01 0.01 64 997.0
20260504225838 69 154 0.0 0.9 0.00 0.01 0.01 64 996.8
20260504224938 70 171 0.0 1.7 0.00 0.01 0.01 64 997.2
20260504223138 70 151 0.9 2.6 0.00 0.01 0.01 63 997.9
20260504222238 72 159 0.9 4.3 0.00 0.01 0.01 61 998.0
20260504221338 75 165 1.7 6.1 0.00 0.01 0.01 49 998.2
20260504215538 78 181 1.7 7.8 0.00 0.01 0.01 37 997.7
20260504214638 79 166 1.7 5.2 0.00 0.01 0.01 38 997.6
20260504213738 79 168 1.7 4.3 0.00 0.01 0.01 37 997.7
20260504212838 78 163 0.9 2.6 0.00 0.01 0.01 39 997.8